Hourly Weather Barok

Today, 18 April, Sunday

Time Temperature Precipitation Wind Pressure Humidity
00:00 +5°C° 0 mm 1 mps 743 mmHg 89%
01:00 +4°C° 0 mm 1 mps 742 mmHg 90%
02:00 +4°C° 0 mm 1 mps 742 mmHg 90%
03:00 +3°C° 0 mm 1 mps 742 mmHg 90%
04:00 +3°C° 0 mm 1 mps 742 mmHg 90%
05:00 +3°C° 0 mm 1 mps 742 mmHg 90%
06:00 +4°C° 0 mm 1 mps 742 mmHg 85%
07:00 +5°C° 0 mm 0 mps 742 mmHg 80%
08:00 +6°C° 0 mm 0 mps 742 mmHg 74%
09:00 +8°C° 0 mm 0 mps 742 mmHg 68%
10:00 +9°C° 0 mm 0 mps 742 mmHg 62%
11:00 +12°C° 0 mm 1 mps 742 mmHg 57%
12:00 +13°C° 0 mm 1 mps 742 mmHg 54%
13:00 +13°C° 0 mm 1 mps 741 mmHg 51%
14:00 +14°C° 0 mm 1 mps 741 mmHg 48%
15:00 +14°C° 0 mm 1 mps 741 mmHg 48%
16:00 +14°C° 0 mm 1 mps 741 mmHg 48%
17:00 +14°C° 0 mm 1 mps 741 mmHg 48%
18:00 +13°C° 0 mm 1 mps 741 mmHg 52%
19:00 +12°C° 0 mm 1 mps 741 mmHg 56%
20:00 +11°C° 0 mm 1 mps 741 mmHg 60%
21:00 +11°C° 0 mm 1 mps 741 mmHg 64%
22:00 +10°C° 0 mm 1 mps 741 mmHg 68%
23:00 +10°C° 0 mm 1 mps 741 mmHg 72%

Tomorrow, 19 April, Monday

Time Temperature Precipitation Wind Pressure Humidity
00:00 +10°C° 0 mm 1 mps 741 mmHg 73%
01:00 +9°C° 0 mm 1 mps 741 mmHg 75%
02:00 +9°C° 0 mm 1 mps 741 mmHg 76%
03:00 +9°C° 0 mm 1 mps 741 mmHg 77%
04:00 +9°C° 0 mm 1 mps 740 mmHg 78%
05:00 +8°C° 0 mm 1 mps 740 mmHg 79%
06:00 +9°C° 0 mm 1 mps 740 mmHg 76%
07:00 +9°C° 0 mm 2 mps 741 mmHg 74%
08:00 +10°C° 0 mm 2 mps 741 mmHg 71%
09:00 +12°C° 0 mm 2 mps 740 mmHg 67%
10:00 +13°C° 0 mm 1 mps 740 mmHg 62%
11:00 +14°C° 0 mm 1 mps 740 mmHg 58%
12:00 +14°C° 0.3 mm 1 mps 740 mmHg 58%
13:00 +14°C° 0.3 mm 2 mps 739 mmHg 58%
14:00 +13°C° 0.3 mm 3 mps 739 mmHg 58%
15:00 +12°C° 0.4 mm 3 mps 739 mmHg 64%
16:00 +11°C° 0.4 mm 3 mps 739 mmHg 71%
17:00 +11°C° 0.4 mm 3 mps 739 mmHg 77%
18:00 +10°C° 0.4 mm 3 mps 739 mmHg 80%
19:00 +10°C° 0.4 mm 4 mps 739 mmHg 83%
20:00 +8°C° 0.4 mm 4 mps 739 mmHg 85%
21:00 +8°C° 0.2 mm 4 mps 738 mmHg 85%
22:00 +8°C° 0.2 mm 4 mps 738 mmHg 85%
23:00 +8°C° 0.2 mm 3 mps 738 mmHg 85%

Day after tomorrow, 20 April, Tuesday

Time Temperature Precipitation Wind Pressure Humidity
00:00 +8°C° 0 mm 3 mps 737 mmHg 85%
01:00 +7°C° 0 mm 3 mps 737 mmHg 84%
02:00 +7°C° 0 mm 3 mps 737 mmHg 84%
03:00 +6°C° 0 mm 4 mps 736 mmHg 84%
04:00 +5°C° 0 mm 4 mps 736 mmHg 83%
05:00 +5°C° 0 mm 4 mps 736 mmHg 83%
06:00 +6°C° 0 mm 5 mps 736 mmHg 79%
07:00 +6°C° 0 mm 5 mps 736 mmHg 75%
08:00 +7°C° 0 mm 6 mps 736 mmHg 72%
09:00 +8°C° 0 mm 5 mps 736 mmHg 66%
10:00 +9°C° 0 mm 5 mps 736 mmHg 59%
11:00 +10°C° 0 mm 5 mps 735 mmHg 53%
12:00 +10°C° 0 mm 5 mps 735 mmHg 53%
13:00 +11°C° 0 mm 6 mps 735 mmHg 53%
14:00 +11°C° 0 mm 6 mps 735 mmHg 53%
15:00 +10°C° 0 mm 6 mps 735 mmHg 54%
16:00 +10°C° 0 mm 5 mps 735 mmHg 55%
17:00 +10°C° 0 mm 5 mps 735 mmHg 57%
18:00 +10°C° 0 mm 4 mps 736 mmHg 63%
19:00 +8°C° 0 mm 3 mps 736 mmHg 69%
20:00 +7°C° 0 mm 2 mps 736 mmHg 75%
21:00 +6°C° 0 mm 2 mps 736 mmHg 79%
22:00 +6°C° 0 mm 2 mps 737 mmHg 82%
23:00 +5°C° 0 mm 2 mps 737 mmHg 85%

21 April, Wednesday

Time Temperature Precipitation Wind Pressure Humidity
00:00 +5°C° 0 mm 2 mps 737 mmHg 86%
01:00 +4°C° 0 mm 2 mps 737 mmHg 87%
02:00 +4°C° 0 mm 2 mps 737 mmHg 87%
03:00 +4°C° 0 mm 2 mps 737 mmHg 88%
04:00 +4°C° 0 mm 2 mps 738 mmHg 90%
05:00 +3°C° 0 mm 2 mps 738 mmHg 91%
06:00 +5°C° 0 mm 2 mps 738 mmHg 84%
07:00 +6°C° 0 mm 2 mps 739 mmHg 77%
08:00 +8°C° 0 mm 2 mps 739 mmHg 71%
09:00 +9°C° 0.1 mm 2 mps 739 mmHg 67%
10:00 +10°C° 0.1 mm 3 mps 739 mmHg 63%
11:00 +11°C° 0.1 mm 3 mps 739 mmHg 59%
12:00 +12°C° 0.2 mm 3 mps 739 mmHg 55%
13:00 +13°C° 0.2 mm 4 mps 739 mmHg 52%
14:00 +13°C° 0.2 mm 4 mps 739 mmHg 49%
15:00 +13°C° 0 mm 4 mps 739 mmHg 49%
16:00 +13°C° 0 mm 3 mps 739 mmHg 50%
17:00 +13°C° 0 mm 3 mps 739 mmHg 50%
18:00 +12°C° 0 mm 3 mps 739 mmHg 55%
19:00 +12°C° 0 mm 2 mps 740 mmHg 60%
20:00 +10°C° 0 mm 2 mps 740 mmHg 65%
21:00 +9°C° 0 mm 2 mps 740 mmHg 68%
22:00 +9°C° 0 mm 2 mps 741 mmHg 71%
23:00 +8°C° 0 mm 2 mps 741 mmHg 74%

22 April, Thursday

Time Temperature Precipitation Wind Pressure Humidity
00:00 +8°C° 0 mm 2 mps 741 mmHg 76%
01:00 +8°C° 0 mm 1 mps 741 mmHg 77%
02:00 +8°C° 0 mm 1 mps 741 mmHg 79%
03:00 +8°C° 0 mm 1 mps 741 mmHg 81%
04:00 +8°C° 0 mm 1 mps 741 mmHg 82%
05:00 +7°C° 0 mm 1 mps 742 mmHg 84%
06:00 +9°C° 0 mm 1 mps 742 mmHg 79%
07:00 +10°C° 0 mm 1 mps 742 mmHg 73%
08:00 +12°C° 0 mm 2 mps 742 mmHg 68%
09:00 +13°C° 0.1 mm 2 mps 742 mmHg 62%
10:00 +15°C° 0.1 mm 2 mps 743 mmHg 57%
11:00 +16°C° 0.1 mm 3 mps 743 mmHg 51%
12:00 +17°C° 0.3 mm 3 mps 743 mmHg 49%
13:00 +17°C° 0.3 mm 3 mps 742 mmHg 46%
14:00 +18°C° 0.3 mm 3 mps 742 mmHg 43%
15:00 +17°C° 0 mm 3 mps 742 mmHg 48%
16:00 +16°C° 0 mm 2 mps 742 mmHg 52%
17:00 +16°C° 0 mm 1 mps 742 mmHg 57%
18:00 +15°C° 0 mm 1 mps 742 mmHg 57%
19:00 +14°C° 0 mm 1 mps 742 mmHg 57%
20:00 +14°C° 0 mm 1 mps 743 mmHg 57%
21:00 +13°C° 0 mm 2 mps 743 mmHg 58%
22:00 +13°C° 0 mm 2 mps 743 mmHg 59%
23:00 +13°C° 0 mm 2 mps 743 mmHg 60%

23 April, Friday

Time Temperature Precipitation Wind Pressure Humidity
00:00 +12°C° 0 mm 2 mps 743 mmHg 64%
01:00 +10°C° 0 mm 2 mps 743 mmHg 67%
02:00 +9°C° 0 mm 2 mps 742 mmHg 71%
03:00 +9°C° 0.1 mm 2 mps 742 mmHg 74%
04:00 +9°C° 0.1 mm 2 mps 742 mmHg 77%
05:00 +8°C° 0.1 mm 2 mps 742 mmHg 80%
06:00 +10°C° 0 mm 3 mps 742 mmHg 74%
07:00 +11°C° 0 mm 3 mps 742 mmHg 69%
08:00 +13°C° 0 mm 4 mps 742 mmHg 63%
09:00 +14°C° 0 mm 5 mps 743 mmHg 59%
10:00 +15°C° 0 mm 5 mps 743 mmHg 54%
11:00 +17°C° 0 mm 6 mps 743 mmHg 49%
12:00 +17°C° 0.1 mm 6 mps 742 mmHg 47%
13:00 +19°C° 0.1 mm 6 mps 742 mmHg 44%
14:00 +19°C° 0.1 mm 6 mps 742 mmHg 41%
15:00 +15°C° 0.3 mm 6 mps 742 mmHg 55%
16:00 +13°C° 0.3 mm 6 mps 743 mmHg 68%
17:00 +9°C° 0.3 mm 6 mps 743 mmHg 81%
18:00 +9°C° 1.4 mm 5 mps 744 mmHg 85%
19:00 +9°C° 1.4 mm 3 mps 744 mmHg 89%
20:00 +10°C° 1.4 mm 1 mps 744 mmHg 92%
21:00 +10°C° 0.4 mm 1 mps 744 mmHg 93%
22:00 +10°C° 0.4 mm 1 mps 744 mmHg 93%
23:00 +10°C° 0.4 mm 1 mps 744 mmHg 93%
Show more